TimeEDT,TemperatureF,Dew PointF,Humidity,Sea Level PressureIn,VisibilityMPH,Wind Direction,Wind SpeedMPH,Gust SpeedMPH,PrecipitationIn,Events,Conditions,WindDirDegrees,DateUTC
12:53 AM,73.0,66.0,79,29.53,10.0,WNW,19.6,29.9,N/A,,Mostly Cloudy,300,2012-10-27 04:53:00
1:53 AM,73.0,66.0,79,29.52,10.0,NW,17.3,27.6,N/A,,Mostly Cloudy,310,2012-10-27 05:53:00
2:08 AM,73.4,64.4,73,29.52,10.0,WNW,19.6,27.6,N/A,,Mostly Cloudy,290,2012-10-27 06:08:00
2:53 AM,73.0,64.0,73,29.50,10.0,WNW,21.9,32.2,N/A,,Overcast,290,2012-10-27 06:53:00
3:53 AM,73.0,64.0,73,29.49,10.0,WNW,19.6,29.9,N/A,,Overcast,290,2012-10-27 07:53:00
4:53 AM,72.0,63.0,73,29.50,10.0,WNW,21.9,32.2,N/A,,Mostly Cloudy,290,2012-10-27 08:53:00
5:53 AM,71.1,62.1,73,29.51,10.0,WNW,20.7,28.8,N/A,,Partly Cloudy,290,2012-10-27 09:53:00
6:53 AM,70.0,62.1,76,29.53,10.0,West,17.3,27.6,N/A,,Partly Cloudy,280,2012-10-27 10:53:00
7:53 AM,70.0,61.0,73,29.55,10.0,West,18.4,23.0,N/A,,Partly Cloudy,280,2012-10-27 11:53:00
8:53 AM,72.0,62.1,71,29.57,10.0,WNW,19.6,27.6,N/A,,Partly Cloudy,290,2012-10-27 12:53:00
9:53 AM,75.0,62.1,64,29.59,10.0,WNW,17.3,33.4,N/A,,Partly Cloudy,290,2012-10-27 13:53:00
10:53 AM,77.0,62.1,60,29.60,10.0,West,23.0,33.4,N/A,,Partly Cloudy,280,2012-10-27 14:53:00
11:53 AM,80.1,62.1,54,29.60,10.0,WNW,19.6,28.8,N/A,,Partly Cloudy,290,2012-10-27 15:53:00
12:53 PM,82.9,62.1,49,29.58,10.0,WNW,24.2,38.0,N/A,,Partly Cloudy,300,2012-10-27 16:53:00
1:53 PM,84.0,60.1,44,29.56,10.0,NW,18.4,34.5,N/A,,Partly Cloudy,310,2012-10-27 17:53:00
2:53 PM,84.0,59.0,43,29.55,10.0,WNW,20.7,27.6,N/A,,Partly Cloudy,290,2012-10-27 18:53:00
3:53 PM,84.0,57.0,40,29.55,10.0,NW,25.3,34.5,N/A,,Partly Cloudy,320,2012-10-27 19:53:00
4:53 PM,82.9,60.1,46,29.55,10.0,NW,18.4,28.8,N/A,,Partly Cloudy,310,2012-10-27 20:53:00
5:53 PM,81.0,57.9,45,29.56,10.0,NW,15.0,25.3,N/A,,Partly Cloudy,310,2012-10-27 21:53:00
6:53 PM,78.1,59.0,52,29.58,10.0,NW,11.5,21.9,N/A,,Partly Cloudy,310,2012-10-27 22:53:00
7:53 PM,75.9,60.1,58,29.62,10.0,NW,9.2,-,N/A,,Partly Cloudy,310,2012-10-27 23:53:00
8:53 PM,75.0,60.1,60,29.65,10.0,WNW,10.4,19.6,N/A,,Clear,300,2012-10-28 00:53:00
9:53 PM,73.9,61.0,64,29.68,10.0,WNW,13.8,25.3,N/A,,Clear,290,2012-10-28 01:53:00
10:53 PM,73.0,61.0,66,29.69,10.0,WNW,15.0,21.9,N/A,,Clear,300,2012-10-28 02:53:00
11:53 PM,72.0,61.0,68,29.70,10.0,WNW,15.0,20.7,N/A,,Clear,300,2012-10-28 03:53:00